timestamp,surface_pressure_avg,surface_temp_avg,battery_voltage,lat,long
2023-04-26 00:09:00+00:00,263.6763,1.17,12.97,47.84626,-54.09684
2023-04-26 00:19:00+00:00,263.0547,1.14,12.81,47.84626,-54.09684
2023-04-26 00:29:00+00:00,264.3914,1.1,12.81,47.84626,-54.09684
2023-04-26 00:39:00+00:00,270.4081,1.22,12.81,47.84626,-54.09684
2023-04-26 00:49:00+00:00,274.928,1.62,12.81,47.84626,-54.09684
2023-04-26 00:59:00+00:00,276.2081,1.68,12.81,47.84626,-54.09684
2023-04-26 01:09:00+00:00,280.4597,1.49,12.81,47.84626,-54.09684
2023-04-26 01:19:00+00:00,288.2147,1.5,12.73,47.84626,-54.09684
2023-04-26 01:29:00+00:00,293.7714,1.5,12.73,47.84626,-54.09684
2023-04-26 01:39:00+00:00,297.208,1.5,12.73,47.84626,-54.09684
2023-04-26 01:49:00+00:00,302.2997,1.5,12.73,47.84626,-54.09684
2023-04-26 01:59:00+00:00,307.6864,1.5,12.73,47.84626,-54.09684
2023-04-26 02:09:00+00:00,311.7229,1.5,12.73,47.84626,-54.09684
2023-04-26 02:19:00+00:00,315.6797,1.5,12.73,47.84626,-54.09684
2023-04-26 02:29:00+00:00,319.7831,1.5,12.73,47.84626,-54.09684
2023-04-26 02:39:00+00:00,320.1064,1.4,12.73,47.84626,-54.09684
2023-04-26 02:49:00+00:00,320.7097,1.37,12.73,47.84626,-54.09684
2023-04-26 02:59:00+00:00,323.7079,1.4,12.73,47.84626,-54.09684
2023-04-26 03:09:00+00:00,325.2347,1.4,12.73,47.84626,-54.09684
2023-04-26 03:19:00+00:00,323.963,1.4,12.73,47.84626,-54.09684
2023-04-26 03:29:00+00:00,324.3146,1.4,12.73,47.84626,-54.09684
2023-04-26 03:39:00+00:00,327.0364,1.5,12.73,47.84626,-54.09684
2023-04-26 03:49:00+00:00,326.6528,1.52,12.73,47.84626,-54.09684
2023-04-26 03:59:00+00:00,326.6846,1.4,12.73,47.84626,-54.09684
2023-04-26 04:09:00+00:00,326.5063,1.3,12.73,47.84626,-54.09684
2023-04-26 04:19:00+00:00,326.2131,1.2,12.65,47.84626,-54.09684
2023-04-26 04:29:00+00:00,325.7513,1.1,12.65,47.84626,-54.09684
2023-04-26 04:39:00+00:00,324.613,1.14,12.65,47.84626,-54.09684
2023-04-26 04:49:00+00:00,322.1597,1.2,12.65,47.84626,-54.09684
2023-04-26 04:59:00+00:00,319.748,1.1,12.65,47.84626,-54.09684
2023-04-26 05:09:00+00:00,319.0664,1.19,12.65,47.84626,-54.09684
2023-04-26 05:19:00+00:00,317.6763,1.2,12.65,47.84626,-54.09684
2023-04-26 05:29:00+00:00,312.8297,1.2,12.65,47.84626,-54.09684
2023-04-26 05:39:00+00:00,310.9646,1.2,12.65,47.84626,-54.09684
2023-04-26 05:49:00+00:00,308.8864,1.2,12.65,47.84626,-54.09684
2023-04-26 05:59:00+00:00,302.5197,1.2,12.65,47.84626,-54.09684
2023-04-26 06:09:00+00:00,294.9447,1.2,12.65,47.84626,-54.09684
2023-04-26 06:19:00+00:00,291.7681,1.2,12.65,47.84626,-54.09684
2023-04-26 06:29:00+00:00,286.9214,1.21,12.65,47.84626,-54.09684
2023-04-26 06:39:00+00:00,276.8347,1.28,12.65,47.84626,-54.09684
2023-04-26 06:49:00+00:00,271.3897,1.28,12.65,47.84626,-54.09684
2023-04-26 06:59:00+00:00,268.8647,1.28,12.65,47.84626,-54.09684
2023-04-26 07:09:00+00:00,262.1314,1.27,12.65,47.84626,-54.09684
2023-04-26 07:19:00+00:00,252.6747,1.25,12.65,47.84626,-54.09684
2023-04-26 07:29:00+00:00,249.1281,1.2,12.65,47.84626,-54.09684
2023-04-26 07:39:00+00:00,245.0598,1.2,12.65,47.84626,-54.09684
2023-04-26 07:49:00+00:00,237.2298,1.23,12.65,47.84626,-54.09684
2023-04-26 07:59:00+00:00,231.2214,1.24,12.65,47.84626,-54.09684
2023-04-26 08:09:00+00:00,227.6114,1.2,12.65,47.84626,-54.09684
2023-04-26 08:19:00+00:00,221.2198,1.2,12.57,47.84626,-54.09684
2023-04-26 08:29:00+00:00,215.0447,1.2,12.57,47.84626,-54.09684
2023-04-26 08:39:00+00:00,213.1714,1.2,12.57,47.84626,-54.09684
2023-04-26 08:49:00+00:00,212.1147,1.1,12.57,47.84626,-54.09684
2023-04-26 08:59:00+00:00,208.2314,1.09,12.57,47.84626,-54.09684
2023-04-26 09:09:00+00:00,205.3798,1.1,12.57,47.84626,-54.09684
2023-04-26 09:19:00+00:00,207.1431,1.1,12.57,47.84626,-54.09684
2023-04-26 09:29:00+00:00,209.2881,1.1,12.57,47.84626,-54.09684
2023-04-26 09:39:00+00:00,208.0765,1.11,12.57,47.84626,-54.09684
2023-04-26 09:49:00+00:00,209.7248,1.13,12.57,47.84626,-54.09684
2023-04-26 09:59:00+00:00,213.6631,1.14,12.57,47.84626,-54.09684
2023-04-26 10:09:00+00:00,215.3798,1.17,12.57,47.84626,-54.09684
2023-04-26 10:19:00+00:00,215.4948,1.2,12.73,47.84626,-54.09684
2023-04-26 10:29:00+00:00,218.6514,1.2,12.73,47.84626,-54.09684
2023-04-26 10:39:00+00:00,224.2598,1.2,12.73,47.84626,-54.09684
2023-04-26 10:49:00+00:00,225.5914,1.2,12.73,47.84626,-54.09684
2023-04-26 10:59:00+00:00,226.4898,1.28,12.73,47.84626,-54.09684
2023-04-26 11:09:00+00:00,229.5531,1.25,12.73,47.84626,-54.09684
2023-04-26 11:19:00+00:00,232.5614,1.2,13.13,47.84626,-54.09684
2023-04-26 11:29:00+00:00,232.6947,1.28,13.13,47.84626,-54.09684
2023-04-26 11:39:00+00:00,232.6847,1.3,13.13,47.84626,-54.09684
2023-04-26 11:49:00+00:00,232.7697,1.31,13.13,47.84626,-54.09684
2023-04-26 11:59:00+00:00,234.7014,1.33,13.13,47.84626,-54.09684
2023-04-26 12:09:00+00:00,237.3098,1.34,13.13,47.84626,-54.09684
2023-04-26 12:19:00+00:00,238.1163,1.36,13.6,47.84626,-54.09684
2023-04-26 12:29:00+00:00,238.8165,1.39,13.6,47.84626,-54.09684
2023-04-26 12:39:00+00:00,242.2831,1.39,13.6,47.84626,-54.09684
2023-04-26 12:49:00+00:00,246.2664,1.3,13.6,47.84626,-54.09684
2023-04-26 12:59:00+00:00,248.22299999999998,1.27,13.6,47.84626,-54.09684
2023-04-26 13:09:00+00:00,250.7331,1.1,13.6,47.84626,-54.09684
2023-04-26 13:19:00+00:00,255.3564,1.0,14.0,47.84626,-54.09684
2023-04-26 13:29:00+00:00,260.8531,1.0,14.0,47.84626,-54.09684
2023-04-26 13:39:00+00:00,263.4681,1.0,14.0,47.84626,-54.09684
2023-04-26 13:49:00+00:00,265.7397,0.99,14.0,47.84626,-54.09684
2023-04-26 13:59:00+00:00,270.7848,1.4,14.0,47.84626,-54.09684
2023-04-26 14:09:00+00:00,274.3997,1.59,14.0,47.84626,-54.09684
2023-04-26 14:19:00+00:00,275.9064,1.59,14.0,47.84626,-54.09684
2023-04-26 14:29:00+00:00,280.2381,1.14,14.0,47.84626,-54.09684
2023-04-26 14:39:00+00:00,284.4764,0.89,14.0,47.84626,-54.09684
2023-04-26 14:49:00+00:00,285.5714,0.9,14.0,47.84626,-54.09684
2023-04-26 14:59:00+00:00,284.5447,0.8,14.0,47.84626,-54.09684
2023-04-26 15:09:00+00:00,285.9614,0.76,14.0,47.84626,-54.09684
2023-04-26 15:19:00+00:00,285.8697,0.7,13.92,47.84626,-54.09684
2023-04-26 15:29:00+00:00,285.0314,0.7,13.92,47.84626,-54.09684
2023-04-26 15:39:00+00:00,285.2697,0.7,13.92,47.84626,-54.09684
2023-04-26 15:49:00+00:00,287.5714,0.7,13.92,47.84626,-54.09684
2023-04-26 15:59:00+00:00,288.7781,0.7,13.92,47.84626,-54.09684
2023-04-26 16:09:00+00:00,290.118,0.7,13.92,47.84626,-54.09684
2023-04-26 16:19:00+00:00,290.7881,0.71,14.0,47.84626,-54.09684
2023-04-26 16:29:00+00:00,291.0381,0.73,14.0,47.84626,-54.09684
2023-04-26 16:39:00+00:00,289.9496,0.73,14.0,47.84626,-54.09684
2023-04-26 16:49:00+00:00,289.3781,0.76,14.0,47.84626,-54.09684
2023-04-26 16:59:00+00:00,288.988,0.77,14.0,47.84626,-54.09684
2023-04-26 17:09:00+00:00,289.4964,0.78,14.0,47.84626,-54.09684
2023-04-26 17:19:00+00:00,286.7463,0.78,14.16,47.84626,-54.09684
2023-04-26 17:29:00+00:00,284.748,0.8,14.16,47.84626,-54.09684
2023-04-26 17:39:00+00:00,285.408,0.8,14.16,47.84626,-54.09684
2023-04-26 17:49:00+00:00,285.4264,0.8,14.16,47.84626,-54.09684
2023-04-26 17:59:00+00:00,281.513,0.8,14.16,47.84626,-54.09684
2023-04-26 18:09:00+00:00,278.1981,0.88,14.16,47.84626,-54.09684
2023-04-26 18:19:00+00:00,276.4597,0.89,14.0,47.84626,-54.09684
2023-04-26 18:29:00+00:00,271.9897,1.82,14.0,47.84626,-54.09684
2023-04-26 18:39:00+00:00,264.9831,1.36,14.0,47.84626,-54.09684
2023-04-26 18:49:00+00:00,261.3198,0.9,14.0,47.84626,-54.09684
2023-04-26 18:59:00+00:00,259.2431,0.9,14.0,47.84626,-54.09684
2023-04-26 19:09:00+00:00,254.5414,0.9,14.0,47.84626,-54.09684
2023-04-26 19:19:00+00:00,247.5564,0.9,13.84,47.84626,-54.09684
2023-04-26 19:29:00+00:00,244.4665,1.23,13.84,47.84626,-54.09684
2023-04-26 19:39:00+00:00,241.1781,1.89,13.84,47.84626,-54.09684
2023-04-26 19:49:00+00:00,235.4664,1.72,13.84,47.84626,-54.09684
2023-04-26 19:59:00+00:00,228.3931,1.2,13.84,47.84626,-54.09684
2023-04-26 20:09:00+00:00,224.5848,1.17,13.84,47.84626,-54.09684
2023-04-26 20:19:00+00:00,220.4898,1.2,13.68,47.84626,-54.09684
2023-04-26 20:29:00+00:00,217.0197,1.25,13.68,47.84626,-54.09684
2023-04-26 20:39:00+00:00,213.778,1.3,13.68,47.84626,-54.09684
2023-04-26 20:49:00+00:00,213.2231,1.36,13.68,47.84626,-54.09684
2023-04-26 20:59:00+00:00,213.1764,1.39,13.68,47.84626,-54.09684
2023-04-26 21:09:00+00:00,212.3431,1.4,13.68,47.84626,-54.09684
2023-04-26 21:19:00+00:00,210.4298,1.41,13.53,47.84626,-54.09684
2023-04-26 21:29:00+00:00,210.2431,1.4,13.53,47.84626,-54.09684
2023-04-26 21:39:00+00:00,211.8281,1.4,13.53,47.84626,-54.09684
2023-04-26 21:49:00+00:00,212.4815,1.4,13.53,47.84626,-54.09684
2023-04-26 21:59:00+00:00,214.0015,1.4,13.53,47.84626,-54.09684
2023-04-26 22:09:00+00:00,216.7681,1.45,13.53,47.84626,-54.09684
2023-04-26 22:19:00+00:00,220.1648,1.45,13.29,47.84626,-54.09684
2023-04-26 22:29:00+00:00,223.8514,1.5,13.29,47.84626,-54.09684
2023-04-26 22:39:00+00:00,226.1914,1.5,13.29,47.84626,-54.09684
2023-04-26 22:49:00+00:00,228.1831,1.5,13.29,47.84626,-54.09684
2023-04-26 22:59:00+00:00,232.5764,1.53,13.29,47.84626,-54.09684
2023-04-26 23:09:00+00:00,235.8315,1.55,13.29,47.84626,-54.09684
2023-04-26 23:19:00+00:00,238.7831,1.59,12.97,47.84626,-54.09684
2023-04-26 23:29:00+00:00,241.218,1.6,12.97,47.84626,-54.09684
2023-04-26 23:39:00+00:00,243.0547,1.6,12.97,47.84626,-54.09684
2023-04-26 23:49:00+00:00,243.3531,1.82,12.97,47.84626,-54.09684
2023-04-26 23:59:00+00:00,245.9314,1.9,12.97,47.84626,-54.09684
